This is the latest recevied weather packets stored in our database for station/object K3HW. If no packets are shown the sender has not sent any weather packets the latest 1 day(s).
| Time | Temp. | Humidity | Pressure | Rain* | Wind** | Luminosity | Snow |
|---|---|---|---|---|---|---|---|
| 1778034200 | 22.22° C | 52% | 1013.6 hPa | 0 mm | - | 0 W/m² | - |
| 1778033898 | 22.22° C | 52% | 1013.5 hPa | 0 mm | - | 0 W/m² | - |
| 1778033594 | 22.22° C | 52% | 1013.4 hPa | 0 mm | - | 0 W/m² | - |
| 1778033291 | 22.22° C | 52% | 1013.5 hPa | 0 mm | - | 0 W/m² | - |
| 1778032687 | 22.22° C | 51% | 1013.4 hPa | 0 mm | - | 0 W/m² | - |
| 1778032384 | 22.78° C | 50% | 1013.4 hPa | 0 mm | - | 0 W/m² | - |
| 1778032080 | 22.78° C | 50% | 1013.4 hPa | 0 mm | - | 0 W/m² | - |
| 1778031777 | 22.78° C | 49% | 1013.3 hPa | 0 mm | - | 0 W/m² | - |
| 1778031474 | 22.78° C | 48% | 1013.3 hPa | 0 mm | - | 0 W/m² | - |
| 1778031171 | 22.78° C | 48% | 1013.3 hPa | 0 mm | - | 0 W/m² | - |
| 1778030868 | 23.33° C | 48% | 1013.3 hPa | 0 mm | - | 0 W/m² | - |
| 1778030262 | 23.33° C | 47% | 1013.1 hPa | 0 mm | - | 0 W/m² | - |
| 1778029958 | 23.33° C | 46% | 1013.2 hPa | 0 mm | - | 0 W/m² | - |
| 1778029657 | 23.33° C | 46% | 1013.1 hPa | 0 mm | - | 0 W/m² | - |
| 1778029051 | 23.33° C | 47% | 1013 hPa | 0 mm | - | 0 W/m² | - |
| 1778028747 | 23.33° C | 47% | 1012.8 hPa | 0 mm | - | 0 W/m² | - |
| 1778028443 | 23.89° C | 46% | 1012.8 hPa | 0 mm | - | 0 W/m² | - |
| 1778028141 | 23.89° C | 46% | 1012.9 hPa | 0 mm | - | 0 W/m² | - |
| 1778027837 | 23.89° C | 45% | 1013 hPa | 0 mm | - | 0 W/m² | - |
| 1778026926 | 24.44° C | 45% | 1012.6 hPa | 0 mm | - | 0 W/m² | - |
| 1778026622 | 23.89° C | 44% | 1012.6 hPa | 0 mm | - | 0 W/m² | - |
| 1778025412 | 25° C | 42% | 1012.4 hPa | 0 mm | - | 1 W/m² | - |
| 1778023897 | 25.56° C | 41% | 1012.4 hPa | 0 mm | - | 8 W/m² | - |
| 1778023292 | 25.56° C | 40% | 1012.3 hPa | 0 mm | - | 12 W/m² | - |
| 1778019047 | 27.22° C | 36% | 1012.2 hPa | 0 mm | - | 64 W/m² | - |
* Rain latest hour (hover to see other rain measurements)
** Current wind speed in m/s (hover to see current wind gust speed)